St. Petersburg, FL

12:04 AM EDT on March 28, 2017 (GMT -0400)
Whitted

Weather History for KSPG - July, 2013

Change the Weather History Date:

Monday, July 15, 2013

  Actual Average Record
Temperature  
Mean Temperature 84 °F -  
Max Temperature 91 °F 89 °F 95 °F (1958)
Min Temperature 77 °F 76 °F 70 °F (1967)
Cooling Degree Days 18    
Growing Degree Days 34 (Base 50)    
Moisture  
Dew Point 74 °F    
Average Humidity 76    
Maximum Humidity 90    
Minimum Humidity 55    
Precipitation  
Precipitation 0.00 in - - ()
Sea Level Pressure  
Sea Level Pressure 30.06 in    
Wind  
Wind Speed 11 mph (ESE)    
Max Wind Speed 15 mph    
Max Gust Speed -    
Visibility 10 miles    
Events      
Averages and records for this station are not official NWS values.
T = Trace of Precipitation, MM = Missing Value Source: NWS Daily Summary

Daily Weather History Graph

Daily Weather History Graph

Search for Another Location

Airport or City:

Trip Planner

Search our weather history database for the weather conditions in past years. The results will help you decide how hot, cold, wet, or windy it might be!

Date:

Astronomy

Jul. 15, 2013 Rise Set
Actual Time 6:44 AM EDT 8:28 PM EDT
Civil Twilight 6:18 AM EDT 8:54 PM EDT
Nautical Twilight 5:47 AM EDT 9:25 PM EDT
Astronomical Twilight 5:14 AM EDT 9:58 PM EDT
Moon 1:20 PM EDT (7/15) 12:19 AM EDT (7/15)
Length of Visible Light 14h 35m
Length of Day
13h 43m
Waxing Crescent, 45% of the Moon is Illuminated
Jul 15
Waxing Crescent
Jul 15
First Quarter
Jul 22
Full
Jul 29
Last Quarter
Aug 6
New

Hourly Weather History & Observations

Time (EDT) Temp. Heat Index Dew Point Humidity Pressure Visibility Wind Dir Wind Speed Gust Speed Precip Events Conditions
12:53 AM 78.1 °F - 73.9 °F 87% 30.08 in 10.0 mi SE 15.0 mph - N/A   Clear
1:53 AM 77.0 °F - 73.0 °F 88% 30.06 in 10.0 mi SSE 10.4 mph - N/A   Overcast
2:53 AM 78.1 °F - 73.0 °F 84% 30.06 in 10.0 mi SSE 12.7 mph - N/A   Overcast
3:53 AM 77.0 °F - 73.9 °F 90% 30.06 in 10.0 mi SE 12.7 mph - 0.00 in   Overcast
4:07 AM 77.0 °F - 73.9 °F 90% 30.06 in 10.0 mi SE 12.7 mph - N/A   Mostly Cloudy
4:53 AM 77.0 °F - 73.0 °F 88% 30.05 in 10.0 mi SE 12.7 mph - N/A   Overcast
5:53 AM 77.0 °F - 73.0 °F 88% 30.06 in 10.0 mi ESE 11.5 mph - N/A   Mostly Cloudy
6:53 AM 78.1 °F - 73.9 °F 87% 30.08 in 10.0 mi ESE 10.4 mph - N/A   Overcast
7:53 AM 78.1 °F - 73.9 °F 87% 30.09 in 10.0 mi ESE 11.5 mph - N/A   Overcast
8:53 AM 80.1 °F 84.2 °F 73.0 °F 79% 30.10 in 10.0 mi ESE 10.4 mph - N/A   Clear
9:53 AM 82.0 °F 87.9 °F 73.9 °F 76% 30.10 in 10.0 mi SE 8.1 mph - N/A   Clear
10:53 AM 84.0 °F 91.2 °F 73.9 °F 72% 30.10 in 10.0 mi ESE 6.9 mph - N/A   Clear
11:53 AM 86.0 °F 93.8 °F 73.9 °F 67% 30.10 in 10.0 mi East 8.1 mph - N/A   Clear
12:53 PM 86.0 °F 93.8 °F 73.9 °F 67% 30.09 in 10.0 mi East 6.9 mph - N/A   Clear
1:53 PM 87.1 °F 94.5 °F 73.0 °F 63% 30.07 in 10.0 mi ENE 4.6 mph - N/A   Clear
2:53 PM 88.0 °F 95.6 °F 73.0 °F 61% 30.06 in 10.0 mi ENE 4.6 mph - N/A   Clear
3:53 PM 90.0 °F 96.9 °F 72.0 °F 55% 30.03 in 10.0 mi Calm Calm - N/A   Clear
4:53 PM 90.0 °F 96.9 °F 72.0 °F 55% 30.02 in 10.0 mi East 3.5 mph - N/A   Clear
5:53 PM 84.9 °F 91.4 °F 73.0 °F 67% 30.01 in 10.0 mi NE 15.0 mph - N/A   Clear
6:53 PM 84.9 °F 92.1 °F 73.9 °F 69% 30.00 in 10.0 mi North 9.2 mph - N/A   Scattered Clouds
7:53 PM 84.0 °F 92.6 °F 75.9 °F 76% 30.03 in 10.0 mi East 15.0 mph - N/A   Scattered Clouds
8:53 PM 82.9 °F 89.4 °F 73.9 °F 74% 30.05 in 10.0 mi South 13.8 mph - N/A   Scattered Clouds
8:59 PM 82.0 °F 87.4 °F 73.0 °F 74% 30.04 in 10.0 mi South 15.0 mph - N/A   Mostly Cloudy
9:16 PM 81.0 °F 86.2 °F 73.9 °F 79% 30.04 in 10.0 mi South 11.5 mph - N/A   Scattered Clouds
9:53 PM 81.0 °F 86.7 °F 75.0 °F 82% 30.07 in 10.0 mi SSE 10.4 mph - N/A   Partly Cloudy
10:53 PM 81.0 °F 86.2 °F 73.9 °F 79% 30.09 in 10.0 mi South 8.1 mph - N/A   Overcast
11:53 PM 80.1 °F 84.5 °F 73.9 °F 81% 30.10 in 10.0 mi SSE 9.2 mph - N/A   Mostly Cloudy